{"data":{"norad_id":66446,"epoch":"2026-05-25T05:25:51.481056Z","epoch_age_seconds":55652,"freshness":"FRESH","line1":"1 66446U 25259AA  26145.22629029  .00019638  00000+0  72112-3 0  9991","line2":"2 66446  43.0003 202.3572 0001378 260.4599  99.6097 15.27586494 31198","mean_motion":15.27586494,"eccentricity":0.0001378,"inclination_deg":43.0003,"raan_deg":202.3572,"arg_perigee_deg":260.4599,"mean_anomaly_deg":99.6097,"bstar":0.00072112,"rev_number":3119,"period_min":94.266347971521,"perigee_km":482.08418197187,"apogee_km":483.97511950081,"semimajor_km":6861.1666507363,"source":"CELESTRAK","updated_at":"2026-05-25T13:38:21.212342Z"}}